Kezdőlap
METAR-TAF:

METAR-TAF

Repülőterek :

Crystal Airport

Minneapolis-Crystal, Minnesota, Amerikai Egyesült Államok

földrajzi szélesség: 45-03-45N, földrajzi hosszúság: 093-21-03W, magasság: 264 m

Jelenlegi meteorológiai megfigyelések

A jelentés 46 perccel ezelõtt készült, 21:53 UTC
Déli szél 13 kt széllökések: 19 kt
Hőmérséklet 26°C
Páratartalom 61%
Légköri nyomás 1005 hPa
Látótávolság: 16.1 km
Derült ég

METAR: KMIC 122153Z 18013G19KT 10SM CLR 26/18 A2969 RMK AO2 SLP050 T02560178

Idő: 17:39 (22:39 UTC)


TAF: hiányzik

Meteorológiai megfigyelések és előrejelzések több, mint 4000 repülőtéren (METAR és TAF jelentéseket).

A térképen piros és sárga pontok jelzik az elérhető meteorológiai állomásokat.

Mozgassa az egeret a pont fölött, hogy megjelenjen az állomás neve.

Azután kattintson az időjárási megfigyelések és előrejelzések megtekintéséhez.

A térkép megváltoztatása: kattintson a fekete keresztel jelölt zöld gombra ráközelítéshez, a vonallal jelölt zöld gombra távolításhoz, vagy a zöld nyilakra a szomszédos térképek eléréséhez.


METAR-TAF: